Volver al catálogo

CZ-6A DEB

ActivoSSO
NORAD 55542·DEBRIS·🇨🇳 China

Lanzado Nov 11, 2022 desde Taiyuan Satellite Launch Center

Loading…

Próximos Pases (próximas 24 horas)

TLE

ActualizadoSource: Space-Track

Época: Sep 14, 2026, 00:06 UTC

1 55542U 22151YQ  26257.00441244  .00001190  00000-0  53182-3 0  9996
2 55542  98.7977 279.2671 0013513 346.2948  13.7862 14.24542937193453

Sigue CZ-6A DEB en tiempo real con AllMySat

Download on the App Store